QPF
0.00 0.00 0.00 0.00 0.00 0.00 0.00 0.00 0.00 0.00 0.00 0.00 0.00 0.00 0.00 0.00 0.00 0.00 0.00 0.00 0.00 0.00 0.00 0.00 0.00 0.00 0.00 0.00 0.00 0.00 0.00 0.01 0.02 0.03 0.02 0.00 0.00 0.00 0.00 0.00 0.00 0.00 0.00 0.00 0.00
0.00 0.00 0.00 0.00 0.00 0.00 0.00 0.00 0.00 0.00 0.00 0.00 0.00 0.00 0.00 0.00 0.00 0.00 0.00 0.00 0.00 0.00 0.00 0.00 0.00 0.00 0.00 0.00 0.00 0.00 0.04 0.00 0.00 0.00 0.00 0.00 0.00 0.00 0.00 0.00 0.00 0.00 0.00 0.00 0.00
0.00 0.00 0.00 0.00 0.00 0.00 0.00 0.00 0.00 0.00 0.00 0.00 0.00 0.00 0.00 0.00 0.00 0.00 0.00 0.00 0.00 0.00 0.00 0.00 0.00 0.00 0.00 0.00 0.00 0.00 0.01 0.00 0.00 0.00 0.00 0.00 0.00 0.00 0.01 0.04 0.00 0.00 0.00 0.00 0.00
0.00 0.00 0.00 0.00 0.00 0.00 0.00 0.00 0.00 0.00 0.00 0.00 0.00 0.00 0.00 0.00 0.00 0.00 0.00 0.00 0.00 0.00 0.00 0.00 0.00 0.00 0.00 0.00 0.00 0.00 0.00 0.00 0.00 0.00 0.00 0.00 0.00 0.00 0.01 0.02 0.00 0.00 0.00 0.00 0.00
0.00 0.00 0.00 0.00 0.00 0.00 0.00 0.00 0.00 0.00 0.00 0.00 0.00 0.00 0.00 0.00 0.00 0.00 0.00 0.00 0.00 0.00 0.00 0.00 0.00 0.00 0.00 0.00 0.00 0.00 0.00 0.00 0.00 0.00 0.00 0.00 0.01 0.01 0.00 0.00 0.00 0.00 0.00 0.00 0.00
0.00 0.00 0.00 0.00 0.00 0.00 0.00 0.00 0.00 0.00 0.00 0.00 0.00 0.00 0.00 0.00 0.00 0.00 0.00 0.00 0.00 0.00 0.00 0.00 0.00 0.00 0.00 0.00 0.00 0.00 0.00 0.00 0.00 0.00 0.00 0.00 0.00 0.07 0.03 0.00 0.00 0.00 0.00 0.00 0.00
0.00 0.00 0.00 0.00 0.00 0.00 0.00 0.00 0.00 0.00 0.00 0.00 0.00 0.00 0.00 0.00 0.00 0.00 0.00 0.00 0.00 0.00 0.00 0.00 0.00 0.00 0.00 0.00 0.00 0.00 0.00 0.01 0.00 0.00 0.00 0.00 0.01 0.06 0.02 0.00 0.00 0.00 0.00 0.00 0.00
0.00 0.00 0.00 0.00 0.00 0.00 0.00 0.00 0.00 0.00 0.00 0.00 0.00 0.00 0.00 0.00 0.00 0.00 0.00 0.00 0.00 0.00 0.00 0.00 0.00 0.00 0.00 0.00 0.00 0.00 0.01 0.12 0.09 0.00 0.00 0.02 0.07 0.02 0.00 0.00 0.00 0.00 0.00 0.00 0.00
0.00 0.00 0.00 0.00 0.00 0.00 0.00 0.00 0.00 0.00 0.00 0.00 0.00 0.00 0.00 0.00 0.00 0.00 0.00 0.00 0.00 0.00 0.00 0.00 0.00 0.00 0.00 0.00 0.00 0.01 0.04 0.03 0.07 0.00 0.00 0.01 0.09 0.01 0.00 0.00 0.00 0.00 0.00 0.00 0.00
0.00 0.00 0.00 0.00 0.00 0.00 0.00 0.00 0.00 0.00 0.00 0.00 0.00 0.00 0.00 0.00 0.00 0.00 0.00 0.00 0.00 0.00 0.00 0.00 0.00 0.00 0.00 0.00 0.00 0.00 0.00 0.00 0.01 0.00 0.02 0.06 0.08 0.01 0.00 0.02 0.00 0.00 0.00 0.00 0.00
0.00 0.00 0.00 0.00 0.00 0.00 0.00 0.00 0.00 0.00 0.00 0.00 0.00 0.00 0.00 0.00 0.00 0.00 0.00 0.00 0.00 0.00 0.00 0.00 0.00 0.00 0.00 0.00 0.00 0.00 0.00 0.00 0.00 0.00 0.03 0.03 0.01 0.00 0.00 0.00 0.00 0.00 0.00 0.00 0.00
0.00 0.00 0.00 0.00 0.00 0.00 0.00 0.00 0.00 0.00 0.00 0.00 0.00 0.00 0.00 0.00 0.00 0.00 0.00 0.00 0.00 0.00 0.00 0.00 0.00 0.00 0.00 0.00 0.00 0.00 0.00 0.00 0.00 0.00 0.03 0.01 0.01 0.00 0.00 0.00 0.00 0.00 0.00 0.00 0.00
0.00 0.00 0.00 0.00 0.00 0.00 0.00 0.00 0.00 0.00 0.00 0.00 0.00 0.00 0.00 0.00 0.00 0.00 0.00 0.00 0.00 0.00 0.00 0.00 0.00 0.00 0.00 0.00 0.00 0.00 0.00 0.00 0.00 0.00 0.00 0.01 0.01 0.00 0.00 0.00 0.00 0.00 0.00 0.00 0.00
0.00 0.00 0.00 0.00 0.00 0.00 0.00 0.00 0.00 0.00 0.00 0.00 0.00 0.00 0.00 0.00 0.00 0.00 0.00 0.00 0.00 0.00 0.00 0.00 0.00 0.00 0.00 0.00 0.00 0.00 0.00 0.00 0.00 0.00 0.00 0.01 0.02 0.00 0.00 0.00 0.00 0.00 0.00 0.00 0.00
0.00 0.00 0.00 0.00 0.00 0.00 0.00 0.00 0.00 0.00 0.00 0.00 0.00 0.00 0.00 0.00 0.00 0.00 0.00 0.00 0.00 0.00 0.00 0.00 0.00 0.00 0.00 0.00 0.00 0.00 0.00 0.00 0.00 0.00 0.00 0.00 0.00 0.00 0.00 0.00 0.00 0.00 0.00 0.00 0.00
0.00 0.00 0.00 0.00 0.00 0.00 0.00 0.00 0.00 0.00 0.00 0.00 0.00 0.00 0.00 0.00 0.00 0.00 0.00 0.00 0.00 0.00 0.00 0.00 0.00 0.00 0.00 0.00 0.00 0.00 0.00 0.00 0.00 0.00 0.00 0.00 0.00 0.00 0.00 0.00 0.00 0.00 0.00 0.00 0.00
0.00 0.00 0.00 0.00 0.00 0.00 0.00 0.00 0.00 0.00 0.00 0.00 0.00 0.00 0.00 0.00 0.00 0.00 0.00 0.00 0.00 0.00 0.00 0.00 0.00 0.00 0.00 0.00 0.00 0.00 0.00 0.00 0.00 0.00 0.00 0.00 0.00 0.00 0.00 0.00 0.00 0.00 0.00 0.00 0.00
0.00 0.00 0.00 0.00 0.00 0.00 0.00 0.00 0.00 0.00 0.00 0.00 0.00 0.00 0.00 0.00 0.00 0.00 0.00 0.00 0.00 0.00 0.00 0.00 0.00 0.00 0.00 0.00 0.00 0.00 0.00 0.00 0.00 0.00 0.00 0.00 0.00 0.00 0.00 0.00 0.00 0.00 0.00 0.00 0.00
0.00 0.00 0.00 0.00 0.00 0.00 0.00 0.00 0.00 0.00 0.00 0.00 0.00 0.00 0.00 0.00 0.00 0.00 0.00 0.00 0.00 0.00 0.00 0.00 0.00 0.00 0.00 0.00 0.00 0.00 0.00 0.00 0.00 0.00 0.00 0.00 0.00 0.00 0.00 0.00 0.00 0.00 0.00 0.00 0.00
0.00 0.00 0.00 0.00 0.00 0.00 0.00 0.00 0.00 0.00 0.00 0.00 0.00 0.00 0.00 0.00 0.00 0.00 0.00 0.00 0.00 0.00 0.00 0.00 0.00 0.00 0.00 0.00 0.00 0.00 0.00 0.00 0.00 0.00 0.00 0.00 0.00 0.00 0.00 0.00 0.00 0.00 0.00 0.00 0.00
0.00 0.00 0.00 0.00 0.00 0.00 0.00 0.00 0.00 0.00 0.00 0.00 0.00 0.00 0.00 0.00 0.00 0.00 0.00 0.00 0.00 0.00 0.00 0.00 0.00 0.00 0.00 0.00 0.00 0.00 0.00 0.00 0.00 0.00 0.00 0.00 0.00 0.00 0.00 0.00 0.00 0.00 0.00 0.00 0.00
0.00 0.00 0.00 0.00 0.00 0.00 0.00 0.00 0.00 0.00 0.00 0.00 0.00 0.00 0.00 0.00 0.00 0.00 0.00 0.00 0.00 0.00 0.00 0.00 0.00 0.00 0.00 0.00 0.00 0.00 0.00 0.00 0.00 0.00 0.00 0.00 0.00 0.00 0.00 0.00 0.00 0.00 0.00 0.00 0.00
0.00 0.00 0.00 0.00 0.00 0.00 0.00 0.00 0.00 0.00 0.00 0.00 0.00 0.00 0.00 0.00 0.00 0.00 0.00 0.00 0.00 0.00 0.00 0.00 0.00 0.00 0.00 0.00 0.00 0.00 0.00 0.00 0.00 0.00 0.00 0.00 0.00 0.00 0.00 0.00 0.00 0.00 0.00 0.00 0.00
0.00 0.00 0.00 0.00 0.00 0.00 0.00 0.00 0.00 0.00 0.00 0.00 0.00 0.00 0.00 0.00 0.00 0.00 0.00 0.00 0.00 0.00 0.00 0.00 0.00 0.00 0.00 0.00 0.00 0.00 0.00 0.00 0.00 0.00 0.00 0.00 0.00 0.00 0.00 0.00 0.00 0.00 0.00 0.00 0.00
0.00 0.00 0.00 0.00 0.00 0.00 0.00 0.00 0.00 0.00 0.00 0.00 0.00 0.00 0.00 0.00 0.00 0.00 0.00 0.00 0.00 0.00 0.00 0.00 0.00 0.00 0.00 0.00 0.00 0.00 0.00 0.00 0.00 0.00 0.00 0.00 0.00 0.00 0.00 0.00 0.00 0.00 0.00 0.00 0.00
0.00 0.00 0.00 0.00 0.00 0.00 0.00 0.00 0.00 0.00 0.00 0.00 0.00 0.00 0.00 0.00 0.00 0.00 0.00 0.00 0.00 0.00 0.00 0.00 0.00 0.00 0.00 0.00 0.00 0.00 0.00 0.00 0.00 0.00 0.00 0.00 0.00 0.00 0.00 0.00 0.00 0.00 0.00 0.00 0.00
0.00 0.00 0.00 0.00 0.00 0.00 0.00 0.00 0.00 0.00 0.00 0.00 0.00 0.00 0.00 0.00 0.00 0.00 0.00 0.00 0.00 0.00 0.00 0.00 0.00 0.00 0.00 0.00 0.00 0.00 0.00 0.00 0.00 0.00 0.00 0.00 0.00 0.00 0.00 0.00 0.00 0.00 0.00 0.00 0.00
MSLP
1017.44 1017.16 1016.86 1016.55 1016.23 1015.96 1015.74 1015.54 1015.31 1015.08 1014.93 1014.70 1014.47 1014.23 1013.97 1013.65 1012.95 1012.28 1010.31 1009.34 1009.16 1009.53 1009.63 1009.10 1008.81 1008.36 1007.99 1007.59 1008.04 1008.26 1007.37 1007.67 1008.53 1009.22 1010.17 1010.28 1009.60 1009.53 1009.20 1009.51 1009.75 1010.49 1010.09 1011.66 1013.19
1017.38 1017.08 1016.76 1016.45 1016.13 1015.83 1015.56 1015.35 1015.13 1014.92 1014.77 1014.56 1014.33 1014.11 1013.81 1013.54 1012.03 1010.24 1008.95 1009.39 1009.52 1009.55 1008.91 1008.43 1007.97 1007.90 1007.02 1007.20 1007.61 1007.44 1007.57 1007.80 1008.75 1009.79 1010.61 1010.79 1009.94 1009.73 1009.31 1009.58 1010.24 1010.88 1011.35 1012.40 1013.29
1017.28 1016.97 1016.65 1016.29 1015.97 1015.69 1015.41 1015.13 1014.93 1014.72 1014.53 1014.32 1014.11 1013.93 1013.65 1013.20 1010.84 1008.25 1008.85 1009.45 1009.60 1009.51 1008.66 1008.13 1007.79 1007.45 1006.75 1006.95 1007.31 1007.62 1007.81 1008.60 1009.41 1010.23 1010.59 1010.96 1010.84 1010.40 1009.61 1009.52 1009.68 1010.54 1011.54 1012.44 1013.09
1017.22 1016.80 1016.44 1016.07 1015.71 1015.39 1015.16 1014.91 1014.71 1014.58 1014.35 1014.05 1013.87 1013.66 1013.34 1012.25 1009.09 1008.33 1009.09 1009.54 1009.70 1009.06 1008.57 1008.01 1007.58 1006.85 1006.37 1006.33 1007.28 1007.51 1008.59 1008.91 1009.71 1010.88 1011.12 1011.54 1011.61 1010.77 1010.29 1010.01 1009.89 1010.37 1011.40 1012.15 1012.68
1017.14 1016.70 1016.23 1015.86 1015.50 1015.12 1014.81 1014.62 1014.46 1014.31 1014.12 1013.82 1013.55 1013.35 1012.74 1010.27 1008.34 1008.52 1009.35 1009.66 1009.36 1009.02 1008.23 1007.71 1007.20 1006.67 1006.07 1006.58 1007.14 1007.61 1008.62 1009.31 1010.01 1010.90 1012.00 1012.23 1012.38 1011.22 1010.65 1010.39 1010.22 1010.57 1011.39 1011.88 1012.32
1017.12 1016.61 1016.11 1015.67 1015.21 1014.84 1014.51 1014.31 1014.15 1013.97 1013.83 1013.54 1013.27 1013.12 1011.41 1008.53 1008.46 1008.48 1008.70 1009.13 1008.63 1008.59 1008.08 1007.85 1007.07 1007.03 1006.62 1006.70 1006.87 1007.87 1008.59 1009.43 1010.12 1010.92 1012.15 1012.57 1012.50 1011.72 1010.65 1010.44 1010.51 1010.87 1011.30 1011.69 1012.17
1017.06 1016.48 1015.96 1015.46 1014.94 1014.48 1014.18 1013.93 1013.76 1013.59 1013.47 1013.27 1013.02 1012.36 1010.09 1008.58 1008.36 1008.56 1008.72 1008.53 1008.64 1008.41 1007.86 1007.90 1007.67 1007.13 1006.75 1006.72 1007.51 1007.97 1008.50 1009.15 1009.93 1010.77 1011.53 1012.01 1012.00 1011.46 1010.92 1010.63 1010.65 1010.86 1011.25 1011.65 1012.13
1017.01 1016.36 1015.78 1015.26 1014.72 1014.18 1013.77 1013.47 1013.24 1013.12 1013.11 1012.96 1012.78 1011.53 1008.58 1008.55 1008.48 1008.69 1008.61 1008.69 1008.90 1008.77 1008.38 1008.23 1007.93 1007.14 1006.48 1007.05 1007.47 1007.18 1007.65 1008.03 1009.63 1010.17 1011.31 1011.55 1011.04 1011.38 1011.80 1011.55 1010.75 1010.78 1011.20 1011.66 1012.03
1016.89 1016.25 1015.60 1015.03 1014.48 1013.90 1013.39 1012.95 1012.55 1012.66 1012.71 1012.70 1012.00 1010.24 1008.03 1009.26 1008.37 1007.97 1008.13 1007.90 1008.37 1008.56 1008.55 1008.46 1007.73 1006.56 1006.72 1006.03 1006.01 1006.63 1006.75 1007.34 1008.73 1009.51 1010.10 1010.80 1010.82 1011.39 1011.76 1011.69 1010.69 1010.72 1010.96 1011.43 1011.81
1016.72 1016.02 1015.36 1014.79 1014.25 1013.69 1013.12 1012.88 1012.60 1012.42 1012.32 1011.77 1010.96 1009.63 1007.92 1007.09 1007.35 1007.70 1008.02 1007.82 1007.69 1008.02 1008.08 1007.78 1006.87 1006.05 1005.62 1005.11 1005.21 1005.47 1005.89 1006.82 1007.28 1008.51 1009.22 1009.66 1010.36 1010.97 1011.46 1011.54 1011.02 1010.94 1010.58 1011.00 1011.36
1016.64 1015.89 1015.12 1014.44 1013.98 1013.53 1012.81 1012.15 1012.01 1010.96 1010.13 1008.35 1007.66 1007.06 1006.58 1006.73 1007.16 1007.07 1007.49 1007.48 1007.31 1007.33 1006.77 1007.02 1006.08 1005.14 1004.64 1004.77 1005.32 1005.96 1005.92 1006.28 1007.01 1007.81 1008.41 1008.66 1009.01 1009.96 1010.96 1011.02 1011.30 1010.83 1010.29 1010.55 1010.85
1016.54 1015.73 1014.97 1014.16 1013.67 1013.17 1012.64 1010.08 1009.71 1009.64 1008.02 1007.18 1007.09 1006.85 1006.55 1006.25 1006.19 1006.56 1007.03 1006.67 1006.71 1006.33 1006.57 1006.74 1005.59 1004.86 1005.37 1005.38 1005.55 1005.35 1005.53 1005.91 1006.87 1007.51 1007.95 1007.86 1008.05 1008.59 1009.49 1010.18 1010.42 1010.63 1010.71 1010.69 1010.67
1016.45 1015.64 1014.81 1013.94 1013.25 1012.81 1011.18 1009.61 1009.55 1009.36 1007.58 1006.19 1006.03 1005.57 1005.65 1006.08 1005.34 1005.68 1006.37 1006.06 1006.05 1005.89 1006.03 1005.38 1004.91 1005.46 1005.76 1005.49 1005.34 1005.02 1005.01 1005.55 1006.11 1006.88 1007.23 1007.15 1006.90 1007.53 1008.25 1008.93 1009.42 1009.65 1010.17 1010.42 1010.85
1016.26 1015.57 1014.87 1013.98 1013.23 1011.47 1009.84 1009.76 1009.66 1009.42 1006.63 1005.14 1004.97 1004.66 1005.19 1005.02 1005.01 1005.14 1005.79 1005.84 1005.85 1005.51 1005.57 1005.42 1005.10 1005.67 1005.47 1005.09 1005.03 1004.07 1004.50 1005.34 1006.02 1005.88 1005.09 1006.01 1005.60 1006.15 1006.89 1007.91 1008.52 1008.71 1009.05 1009.48 1010.33
1015.85 1015.44 1014.92 1014.88 1012.83 1010.68 1010.06 1009.87 1009.53 1008.94 1005.19 1003.94 1004.00 1004.50 1004.41 1004.37 1004.44 1005.32 1005.48 1005.63 1005.05 1005.25 1005.71 1004.39 1004.86 1005.10 1004.87 1004.46 1004.56 1004.31 1004.76 1005.03 1005.31 1005.04 1004.91 1005.00 1004.54 1005.28 1006.14 1006.34 1007.02 1007.67 1007.88 1008.42 1008.98
1015.51 1015.08 1014.65 1013.53 1012.65 1010.64 1010.41 1009.90 1009.35 1007.30 1003.90 1003.34 1003.47 1003.73 1003.90 1003.78 1003.97 1004.88 1005.38 1005.55 1005.19 1005.00 1005.03 1004.46 1004.84 1004.56 1003.98 1003.99 1004.18 1004.36 1004.76 1004.93 1004.96 1004.12 1003.82 1004.09 1004.02 1004.12 1004.73 1005.37 1006.09 1006.80 1007.32 1007.88 1008.37
1014.94 1014.40 1014.35 1012.65 1010.54 1010.77 1010.35 1009.07 1007.17 1004.85 1003.81 1002.83 1002.59 1002.88 1002.77 1002.93 1003.44 1003.99 1004.41 1004.61 1004.16 1004.09 1003.58 1003.73 1003.87 1003.86 1003.97 1003.62 1004.03 1004.28 1003.81 1003.37 1003.44 1003.05 1002.97 1004.08 1004.08 1003.43 1004.68 1005.44 1006.02 1006.71 1007.43 1008.07 1008.37
1014.32 1013.70 1012.98 1011.82 1011.19 1010.98 1009.71 1007.96 1005.31 1003.61 1002.77 1002.70 1002.24 1002.21 1002.09 1002.17 1002.65 1003.07 1003.27 1003.15 1003.53 1003.17 1002.47 1002.33 1002.56 1002.97 1003.24 1002.57 1002.76 1003.21 1002.60 1001.94 1002.32 1002.29 1002.43 1003.98 1003.66 1003.39 1004.55 1005.67 1006.40 1007.03 1007.65 1008.14 1008.32
1013.59 1011.48 1011.25 1010.66 1011.05 1010.90 1009.01 1006.30 1004.06 1003.32 1002.80 1002.51 1002.42 1001.85 1001.70 1001.96 1002.02 1002.40 1002.49 1002.06 1002.12 1002.82 1002.15 1001.66 1001.59 1002.48 1002.81 1002.60 1002.32 1002.57 1002.81 1002.09 1002.23 1002.41 1002.80 1002.58 1003.20 1003.80 1004.84 1005.55 1006.19 1006.83 1007.57 1007.84 1008.13
1013.25 1011.06 1010.48 1010.76 1010.74 1009.87 1007.97 1005.25 1004.01 1004.28 1003.66 1003.07 1001.88 1001.70 1000.90 1001.22 1001.90 1001.82 1001.44 1001.33 1001.48 1001.82 1002.09 1001.58 1001.44 1002.14 1002.82 1003.10 1003.14 1002.51 1002.21 1002.29 1002.26 1002.11 1002.03 1002.21 1003.03 1002.99 1003.92 1004.92 1005.81 1006.61 1007.18 1007.72 1008.27
1012.53 1009.99 1010.24 1010.47 1010.37 1008.54 1006.35 1004.95 1004.43 1004.46 1004.29 1003.33 1002.35 1002.02 1001.50 1001.11 1001.25 1001.04 1000.81 1000.93 1001.02 1000.95 1001.70 1001.48 1001.47 1002.15 1002.74 1002.24 1001.50 1002.53 1002.19 1002.35 1001.88 1001.97 1001.78 1001.90 1001.82 1002.45 1003.52 1004.54 1005.61 1006.51 1007.39 1007.91 1008.24
1012.09 1009.23 1009.80 1009.87 1008.44 1007.19 1005.84 1005.54 1005.69 1004.39 1004.42 1003.83 1003.61 1002.87 1002.26 1001.96 1001.41 1001.05 1000.79 1000.52 1000.63 1001.30 1001.43 1001.46 1000.95 1000.95 1001.40 1002.14 1002.37 1001.83 1001.37 1001.63 1001.56 1001.73 1002.27 1002.51 1002.34 1003.64 1004.36 1005.17 1005.96 1006.94 1007.71 1008.24 1008.57
1012.26 1010.25 1009.41 1009.16 1007.23 1006.53 1006.18 1006.07 1005.67 1004.80 1004.26 1003.91 1003.46 1003.27 1002.84 1002.41 1002.08 1001.46 1001.03 1001.04 1001.19 1001.09 1000.68 1001.30 1001.10 1000.48 1001.19 1002.09 1002.41 1001.78 1001.72 1001.85 1001.61 1001.73 1001.69 1002.11 1002.17 1004.02 1004.90 1005.86 1006.62 1007.20 1007.82 1008.39 1008.74
1012.73 1009.82 1008.84 1008.56 1008.41 1007.48 1006.89 1005.99 1005.54 1005.37 1004.91 1004.46 1003.91 1003.41 1003.16 1002.84 1002.44 1001.86 1001.33 1001.35 1001.56 1001.32 1001.27 1001.19 1000.31 1000.14 999.62 999.76 1000.09 1001.07 1001.40 1001.76 1001.59 1001.08 1000.93 1001.47 1002.14 1003.64 1004.60 1005.53 1006.42 1007.29 1007.99 1008.46 1008.83
1012.92 1010.89 1011.05 1008.62 1008.48 1008.48 1008.01 1007.07 1006.08 1005.38 1005.19 1004.98 1004.23 1003.93 1003.34 1002.95 1002.46 1002.04 1001.78 1001.43 1001.60 1001.73 1001.69 1000.95 1000.07 1000.12 1000.01 1000.21 1000.52 1000.59 1000.62 1001.15 1001.39 1001.34 1001.31 1001.40 1002.08 1002.78 1004.02 1004.95 1005.79 1006.88 1007.79 1008.42 1008.75
1013.63 1012.53 1011.54 1010.37 1009.86 1009.11 1008.24 1007.20 1006.84 1006.08 1006.14 1004.84 1004.75 1004.33 1004.31 1003.68 1002.98 1002.24 1002.19 1002.25 1001.15 1001.65 1001.33 1000.76 1000.09 1000.19 1000.15 1000.61 1000.68 1000.57 1000.71 1000.86 1001.11 1001.20 1001.59 1001.82 1002.35 1002.82 1004.33 1005.00 1005.74 1006.80 1007.66 1008.13 1008.56
1014.62 1014.10 1013.20 1010.87 1009.84 1009.26 1008.09 1008.01 1007.67 1008.08 1006.94 1006.33 1006.13 1005.86 1004.68 1004.19 1003.97 1003.93 1003.43 1002.98 1002.35 1001.98 1001.21 1000.62 1000.11 1000.43 999.99 1000.47 1000.63 1000.55 1000.39 1000.33 1000.67 1001.14 1001.44 1001.44 1002.00 1003.22 1004.50 1005.09 1005.78 1006.64 1007.39 1007.89 1008.36
Thickness
5742 5744 5746 5749 5752 5754 5755 5757 5758 5760 5761 5762 5764 5765 5767 5770 5775 5782 5789 5803 5804 5802 5801 5802 5801 5802 5805 5798 5797 5794 5776 5759 5757 5755 5747 5769 5771 5782 5791 5776 5780 5776 5780 5772 5766
5744 5747 5749 5752 5754 5757 5758 5760 5761 5762 5763 5764 5766 5767 5769 5770 5781 5788 5806 5803 5802 5801 5801 5796 5792 5797 5796 5794 5791 5785 5768 5769 5773 5759 5748 5759 5773 5774 5776 5773 5767 5765 5773 5769 5764
5747 5749 5752 5755 5757 5759 5761 5763 5764 5765 5766 5767 5768 5768 5770 5772 5785 5799 5806 5801 5800 5800 5805 5805 5803 5797 5791 5796 5789 5782 5767 5774 5770 5765 5766 5759 5763 5774 5772 5764 5774 5764 5763 5763 5762
5748 5752 5754 5757 5760 5762 5763 5765 5766 5767 5768 5769 5770 5771 5772 5780 5780 5805 5803 5799 5797 5801 5801 5798 5795 5789 5788 5785 5790 5774 5774 5777 5771 5764 5762 5754 5759 5763 5769 5770 5782 5780 5773 5766 5761
5749 5753 5757 5759 5762 5765 5767 5768 5769 5770 5771 5772 5772 5772 5779 5788 5793 5805 5799 5796 5797 5797 5794 5792 5788 5790 5784 5787 5787 5776 5773 5774 5773 5765 5748 5751 5741 5759 5764 5777 5783 5780 5772 5767 5765
5749 5754 5758 5761 5764 5767 5769 5771 5772 5773 5773 5774 5774 5774 5784 5786 5805 5803 5801 5797 5798 5795 5793 5793 5792 5795 5787 5785 5785 5782 5776 5770 5769 5760 5742 5738 5740 5754 5769 5779 5775 5773 5769 5770 5767
5750 5754 5758 5762 5766 5770 5772 5774 5775 5775 5775 5775 5775 5780 5788 5789 5804 5801 5798 5796 5797 5795 5789 5795 5795 5789 5792 5780 5789 5782 5765 5769 5766 5761 5750 5753 5743 5748 5768 5775 5770 5769 5769 5769 5767
5749 5754 5759 5762 5766 5771 5774 5776 5777 5778 5777 5776 5776 5783 5791 5803 5801 5795 5796 5790 5792 5792 5792 5795 5796 5791 5791 5791 5779 5775 5776 5758 5763 5766 5754 5753 5738 5755 5755 5756 5765 5768 5767 5766 5766
5748 5753 5758 5762 5766 5771 5775 5778 5780 5779 5777 5776 5781 5786 5787 5796 5790 5798 5796 5786 5786 5787 5787 5790 5790 5786 5784 5778 5773 5773 5755 5762 5757 5771 5764 5755 5741 5754 5758 5758 5766 5768 5768 5766 5766
5747 5753 5758 5761 5765 5769 5774 5775 5776 5777 5777 5779 5783 5779 5792 5790 5796 5794 5795 5791 5781 5778 5772 5775 5779 5775 5779 5779 5748 5762 5766 5767 5764 5769 5767 5758 5749 5754 5755 5757 5763 5764 5772 5768 5767
5746 5751 5757 5762 5764 5767 5772 5779 5780 5780 5783 5793 5796 5792 5796 5803 5802 5790 5791 5783 5781 5772 5758 5768 5761 5759 5776 5784 5778 5769 5769 5764 5770 5776 5767 5765 5765 5761 5752 5759 5753 5763 5772 5771 5770
5743 5749 5755 5761 5764 5766 5771 5786 5784 5783 5778 5798 5794 5792 5799 5802 5779 5783 5791 5770 5764 5753 5762 5752 5750 5776 5775 5776 5770 5773 5765 5764 5768 5774 5768 5769 5767 5774 5768 5761 5763 5760 5763 5764 5772
5739 5745 5752 5759 5764 5767 5776 5783 5787 5785 5775 5789 5794 5793 5792 5793 5781 5777 5781 5774 5760 5754 5753 5751 5764 5770 5762 5762 5760 5769 5765 5763 5761 5770 5774 5772 5768 5771 5777 5776 5774 5776 5772 5772 5767
5735 5740 5746 5754 5762 5772 5776 5781 5781 5780 5768 5778 5783 5792 5792 5794 5774 5794 5787 5772 5758 5750 5754 5753 5769 5755 5755 5755 5765 5765 5785 5772 5759 5762 5759 5782 5741 5772 5780 5771 5772 5777 5780 5778 5772
5734 5736 5740 5741 5759 5768 5772 5775 5777 5772 5741 5786 5784 5806 5796 5781 5783 5772 5789 5771 5755 5752 5751 5754 5753 5750 5749 5762 5773 5765 5778 5770 5768 5767 5770 5771 5771 5769 5779 5774 5778 5782 5787 5788 5787
5730 5732 5735 5743 5749 5764 5765 5769 5767 5748 5737 5770 5785 5776 5773 5780 5778 5774 5767 5774 5773 5756 5757 5758 5771 5766 5768 5775 5776 5781 5769 5767 5769 5779 5758 5770 5772 5767 5776 5780 5784 5789 5790 5790 5789
5727 5732 5730 5740 5756 5755 5758 5759 5743 5740 5775 5764 5769 5776 5775 5768 5768 5767 5756 5750 5747 5734 5740 5756 5757 5771 5774 5763 5772 5768 5764 5748 5744 5754 5755 5770 5763 5778 5782 5785 5785 5783 5783 5784 5787
5726 5731 5736 5740 5745 5746 5751 5745 5729 5761 5764 5777 5776 5775 5764 5774 5769 5766 5759 5752 5762 5760 5754 5746 5736 5763 5775 5775 5763 5765 5778 5766 5729 5744 5763 5764 5747 5772 5789 5785 5782 5781 5778 5778 5780
5725 5742 5739 5744 5740 5741 5741 5731 5746 5758 5769 5764 5766 5758 5760 5768 5769 5763 5759 5762 5769 5765 5748 5751 5755 5777 5776 5782 5786 5768 5753 5794 5766 5775 5754 5772 5772 5784 5779 5774 5776 5775 5772 5774 5777
5721 5735 5737 5737 5736 5738 5734 5733 5752 5755 5758 5759 5751 5763 5759 5762 5755 5759 5763 5777 5771 5778 5780 5770 5750 5771 5769 5776 5775 5774 5791 5758 5766 5731 5732 5759 5750 5757 5769 5768 5771 5768 5769 5771 5772
5722 5731 5733 5732 5732 5733 5728 5739 5746 5753 5751 5747 5752 5751 5759 5759 5764 5762 5766 5778 5784 5782 5781 5778 5768 5755 5764 5761 5770 5760 5760 5764 5774 5766 5746 5743 5763 5790 5779 5776 5769 5768 5766 5766 5768
5716 5724 5729 5730 5725 5731 5730 5733 5723 5742 5747 5745 5745 5747 5748 5752 5754 5758 5760 5775 5793 5782 5761 5778 5777 5757 5762 5774 5777 5778 5776 5774 5754 5748 5756 5750 5757 5781 5776 5773 5770 5763 5761 5761 5762
5703 5710 5725 5723 5716 5720 5726 5720 5726 5729 5734 5734 5735 5743 5750 5744 5736 5754 5764 5781 5783 5779 5775 5776 5763 5752 5749 5758 5765 5762 5771 5772 5776 5772 5753 5742 5764 5773 5768 5760 5759 5757 5757 5756 5755
5691 5701 5711 5712 5709 5706 5704 5711 5711 5725 5722 5729 5730 5739 5736 5733 5747 5742 5755 5769 5774 5778 5769 5779 5777 5765 5759 5769 5782 5756 5762 5766 5767 5760 5766 5763 5765 5759 5759 5755 5755 5753 5752 5751 5749
5682 5686 5679 5692 5692 5688 5690 5696 5698 5702 5717 5719 5717 5720 5722 5719 5730 5735 5751 5759 5766 5760 5767 5774 5760 5771 5778 5775 5773 5770 5770 5764 5756 5763 5751 5764 5757 5764 5763 5759 5759 5755 5749 5744 5743
5662 5663 5670 5673 5673 5673 5669 5685 5685 5694 5693 5704 5702 5708 5710 5707 5722 5725 5731 5738 5752 5758 5760 5774 5759 5765 5758 5765 5765 5757 5764 5763 5762 5763 5758 5758 5751 5773 5764 5763 5756 5749 5744 5741 5741
5645 5646 5645 5656 5663 5662 5672 5670 5671 5666 5681 5688 5685 5684 5694 5706 5712 5718 5729 5737 5744 5742 5750 5758 5760 5748 5743 5757 5753 5736 5756 5762 5761 5763 5758 5746 5762 5764 5750 5750 5749 5745 5742 5740 5739